TimeCDT,TemperatureF,Dew PointF,Humidity,Sea Level PressureIn,VisibilityMPH,Wind Direction,Wind SpeedMPH,Gust SpeedMPH,PrecipitationIn,Events,Conditions,WindDirDegrees,DateUTC
12:15 AM,63.3,50.7,63,29.98,10.0,Calm,Calm,-,N/A,,Clear,0,2013-05-08 05:15:00
12:35 AM,61.9,50.4,66,29.98,10.0,Calm,Calm,-,N/A,,Clear,0,2013-05-08 05:35:00
12:55 AM,61.7,50.9,68,29.98,10.0,Calm,Calm,-,N/A,,Clear,0,2013-05-08 05:55:00
1:15 AM,62.2,52.2,70,29.98,10.0,Calm,Calm,-,N/A,,Clear,0,2013-05-08 06:15:00
1:35 AM,61.7,52.2,71,29.98,10.0,Calm,Calm,-,N/A,,Clear,0,2013-05-08 06:35:00
1:55 AM,63.0,52.7,69,29.98,10.0,SE,3.5,-,N/A,,Clear,130,2013-05-08 06:55:00
2:15 AM,62.2,52.7,71,29.98,10.0,Calm,Calm,-,N/A,,Clear,0,2013-05-08 07:15:00
2:35 AM,60.6,51.4,72,29.97,10.0,Calm,Calm,-,N/A,,Clear,0,2013-05-08 07:35:00
2:55 AM,59.5,52.0,76,29.97,10.0,Calm,Calm,-,N/A,,Clear,0,2013-05-08 07:55:00
3:15 AM,58.8,51.6,77,29.97,10.0,East,3.5,-,N/A,,Clear,90,2013-05-08 08:15:00
3:35 AM,59.5,52.0,76,29.97,10.0,Calm,Calm,-,N/A,,Clear,0,2013-05-08 08:35:00
3:55 AM,60.8,51.8,72,29.97,10.0,Calm,Calm,-,N/A,,Clear,0,2013-05-08 08:55:00
4:15 AM,59.9,51.8,75,29.97,10.0,Calm,Calm,-,N/A,,Clear,0,2013-05-08 09:15:00
4:35 AM,60.3,52.5,76,29.98,10.0,Calm,Calm,-,N/A,,Clear,0,2013-05-08 09:35:00
4:55 AM,58.6,51.8,78,29.98,10.0,Calm,Calm,-,N/A,,Clear,0,2013-05-08 09:55:00
5:15 AM,58.5,52.9,82,29.97,10.0,Calm,Calm,-,N/A,,Clear,0,2013-05-08 10:15:00
5:35 AM,58.1,52.9,83,29.97,10.0,Calm,Calm,-,N/A,,Clear,0,2013-05-08 10:35:00
5:55 AM,57.4,52.3,83,29.97,10.0,Calm,Calm,-,N/A,,Clear,0,2013-05-08 10:55:00
6:15 AM,58.1,52.7,82,29.98,10.0,Calm,Calm,-,N/A,,Clear,0,2013-05-08 11:15:00
6:35 AM,57.4,52.9,85,29.98,10.0,Calm,Calm,-,N/A,,Clear,0,2013-05-08 11:35:00
6:55 AM,59.0,53.6,82,29.99,10.0,SSE,4.6,-,N/A,,Clear,160,2013-05-08 11:55:00
7:15 AM,59.2,54.1,83,29.99,10.0,South,3.5,-,N/A,,Clear,170,2013-05-08 12:15:00
7:35 AM,60.1,54.7,82,29.99,10.0,South,5.8,-,N/A,,Clear,170,2013-05-08 12:35:00
7:55 AM,62.6,55.6,78,30.00,10.0,South,5.8,-,N/A,,Clear,180,2013-05-08 12:55:00
8:15 AM,63.5,55.8,76,30.00,10.0,South,8.1,-,N/A,,Clear,180,2013-05-08 13:15:00
8:35 AM,64.6,56.1,74,30.01,10.0,SSW,5.8,-,N/A,,Clear,200,2013-05-08 13:35:00
8:55 AM,67.8,57.2,69,30.02,10.0,South,8.1,-,N/A,,Clear,190,2013-05-08 13:55:00
9:15 AM,69.8,56.5,63,30.02,10.0,South,10.4,-,N/A,,Clear,190,2013-05-08 14:15:00
9:35 AM,69.1,57.0,65,30.02,10.0,South,6.9,-,N/A,,Clear,190,2013-05-08 14:35:00
9:55 AM,71.2,57.6,62,30.02,10.0,South,11.5,-,N/A,,Clear,190,2013-05-08 14:55:00
10:15 AM,72.5,57.2,59,30.02,10.0,South,11.5,-,N/A,,Clear,180,2013-05-08 15:15:00
10:35 AM,75.0,57.4,54,30.02,10.0,South,9.2,-,N/A,,Clear,190,2013-05-08 15:35:00
10:55 AM,77.2,55.0,46,30.02,10.0,South,12.7,18.4,N/A,,Clear,180,2013-05-08 15:55:00
11:15 AM,77.4,54.0,44,30.02,10.0,South,11.5,18.4,N/A,,Clear,180,2013-05-08 16:15:00
11:35 AM,77.5,55.4,46,30.02,10.0,South,13.8,20.7,N/A,,Clear,190,2013-05-08 16:35:00
11:55 AM,79.0,54.5,43,30.02,10.0,South,17.3,23.0,N/A,,Clear,180,2013-05-08 16:55:00
12:15 PM,79.5,54.5,42,30.01,10.0,South,16.1,21.9,N/A,,Clear,170,2013-05-08 17:15:00
12:35 PM,80.4,54.9,41,30.00,10.0,SSE,17.3,-,N/A,,Clear,150,2013-05-08 17:35:00
12:55 PM,80.1,54.7,41,30.00,10.0,SSE,16.1,20.7,N/A,,Clear,160,2013-05-08 17:55:00
1:15 PM,81.1,54.5,40,30.00,10.0,SSE,13.8,19.6,N/A,,Clear,160,2013-05-08 18:15:00
1:35 PM,81.1,54.3,39,29.99,10.0,SSE,11.5,20.7,N/A,,Clear,160,2013-05-08 18:35:00
1:55 PM,81.7,55.4,40,29.99,10.0,South,12.7,19.6,N/A,,Clear,170,2013-05-08 18:55:00
2:15 PM,81.7,55.8,41,29.98,10.0,SSE,16.1,21.9,N/A,,Clear,160,2013-05-08 19:15:00
2:35 PM,82.0,55.9,41,29.97,10.0,South,13.8,20.7,N/A,,Clear,170,2013-05-08 19:35:00
2:55 PM,83.7,55.2,38,29.97,10.0,South,15.0,18.4,N/A,,Clear,170,2013-05-08 19:55:00
3:15 PM,83.7,55.2,38,29.96,10.0,SSE,19.6,23.0,N/A,,Clear,160,2013-05-08 20:15:00
3:35 PM,83.7,55.6,38,29.95,10.0,SSE,15.0,19.6,N/A,,Clear,150,2013-05-08 20:35:00
3:55 PM,85.1,56.7,38,29.95,10.0,South,12.7,21.9,N/A,,Clear,190,2013-05-08 20:55:00
4:15 PM,85.5,56.8,38,29.94,10.0,SSE,16.1,21.9,N/A,,Clear,160,2013-05-08 21:15:00
4:35 PM,84.4,56.1,38,29.93,10.0,South,10.4,18.4,N/A,,Clear,170,2013-05-08 21:35:00
4:55 PM,84.7,56.1,37,29.93,10.0,SSW,12.7,19.6,N/A,,Clear,200,2013-05-08 21:55:00
5:15 PM,84.9,56.5,38,29.92,10.0,SSE,11.5,-,N/A,,Clear,150,2013-05-08 22:15:00
5:35 PM,85.1,56.1,37,29.92,10.0,SSE,12.7,18.4,N/A,,Clear,150,2013-05-08 22:35:00
5:55 PM,84.9,55.8,37,29.91,10.0,SSE,15.0,23.0,N/A,,Clear,160,2013-05-08 22:55:00
6:15 PM,84.2,54.9,36,29.91,10.0,South,9.2,20.7,N/A,,Clear,190,2013-05-08 23:15:00
6:35 PM,82.6,55.6,39,29.90,10.0,SSE,10.4,-,N/A,,Clear,160,2013-05-08 23:35:00
6:55 PM,83.3,55.9,39,29.89,10.0,South,13.8,19.6,N/A,,Clear,170,2013-05-08 23:55:00
7:15 PM,81.3,56.1,42,29.89,10.0,South,8.1,16.1,N/A,,Clear,170,2013-05-09 00:15:00
7:35 PM,80.2,55.6,43,29.89,10.0,South,6.9,-,N/A,,Clear,170,2013-05-09 00:35:00
7:55 PM,78.8,56.1,46,29.89,10.0,SSE,5.8,-,N/A,,Clear,160,2013-05-09 00:55:00
8:15 PM,76.8,56.5,49,29.89,10.0,SE,4.6,-,N/A,,Clear,140,2013-05-09 01:15:00
8:35 PM,75.4,56.3,51,29.90,10.0,SE,5.8,-,N/A,,Clear,140,2013-05-09 01:35:00
8:55 PM,75.2,57.0,53,29.90,10.0,SE,5.8,-,N/A,,Clear,140,2013-05-09 01:55:00
9:15 PM,74.5,57.6,55,29.90,10.0,SE,5.8,-,N/A,,Clear,140,2013-05-09 02:15:00
9:35 PM,75.2,57.7,54,29.89,10.0,SSE,9.2,-,N/A,,Clear,160,2013-05-09 02:35:00
9:55 PM,75.4,57.6,54,29.90,10.0,South,6.9,-,N/A,,Clear,170,2013-05-09 02:55:00
10:15 PM,75.4,57.4,53,29.92,10.0,South,8.1,-,N/A,,Clear,170,2013-05-09 03:15:00
10:35 PM,75.0,57.4,54,29.93,10.0,South,10.4,-,N/A,,Clear,180,2013-05-09 03:35:00
11:15 PM,74.3,57.4,55,29.94,10.0,South,8.1,-,N/A,,Scattered Clouds,170,2013-05-09 04:15:00
11:35 PM,73.4,57.2,57,29.93,10.0,SSE,8.1,-,N/A,,Scattered Clouds,160,2013-05-09 04:35:00